Time,TemperatureF,DewpointF,PressureIn,WindDirection,WindDirectionDegrees,WindSpeedMPH,WindSpeedGustMPH,Humidity,HourlyPrecipIn,Conditions,Clouds,dailyrainin,SoftwareType,DateUTC
2013-04-02 00:21:00,43.9,40.0,29.74,SW,225,0.0,-999.0,86,-99.99,,,0.00,Acu-Link.com,2013-04-02 04:21:00,
2013-04-02 00:36:00,43.2,40.5,29.75,SSE,157,0.0,-999.0,90,-99.99,,,0.00,Acu-Link.com,2013-04-02 04:36:00,
2013-04-02 00:52:00,42.4,39.7,29.74,South,180,0.0,-999.0,90,-99.99,,,0.00,Acu-Link.com,2013-04-02 04:52:00,
2013-04-02 01:07:00,42.6,39.9,29.75,West,270,0.0,-999.0,90,-99.99,,,0.00,Acu-Link.com,2013-04-02 05:07:00,
2013-04-02 01:22:00,41.7,39.8,29.76,East,90,0.0,-999.0,93,-99.99,,,0.00,Acu-Link.com,2013-04-02 05:22:00,
2013-04-02 01:37:00,40.8,40.0,29.75,ESE,112,0.0,-999.0,97,-99.99,,,0.00,Acu-Link.com,2013-04-02 05:37:00,
2013-04-02 01:53:00,40.1,39.6,29.76,SSW,202,0.0,-999.0,98,-99.99,,,0.00,Acu-Link.com,2013-04-02 05:53:00,
2013-04-02 02:08:00,39.4,38.9,29.76,NNE,22,0.0,-999.0,98,-99.99,,,0.00,Acu-Link.com,2013-04-02 06:08:00,
2013-04-02 02:23:00,39.4,38.9,29.77,SSE,157,1.7,-999.0,98,-99.99,,,0.00,Acu-Link.com,2013-04-02 06:23:00,
2013-04-02 02:39:00,39.4,38.9,29.77,SW,225,0.0,-999.0,98,-99.99,,,0.00,Acu-Link.com,2013-04-02 06:39:00,
2013-04-02 02:54:00,39.6,39.1,29.77,SW,225,0.0,-999.0,98,-99.99,,,0.00,Acu-Link.com,2013-04-02 06:54:00,
2013-04-02 03:09:00,39.6,39.1,29.77,WSW,247,0.0,-999.0,98,-99.99,,,0.00,Acu-Link.com,2013-04-02 07:09:00,
2013-04-02 03:24:00,39.2,38.7,29.77,South,180,2.2,-999.0,98,-99.99,,,0.00,Acu-Link.com,2013-04-02 07:24:00,
2013-04-02 03:40:00,38.8,35.0,29.77,SW,225,0.0,-999.0,86,-99.99,,,0.00,Acu-Link.com,2013-04-02 07:40:00,
2013-04-02 03:55:00,38.8,34.7,29.78,SW,225,1.1,-999.0,85,-99.99,,,0.00,Acu-Link.com,2013-04-02 07:55:00,
2013-04-02 04:11:00,38.1,34.3,29.78,SSW,202,2.2,-999.0,86,-99.99,,,0.00,Acu-Link.com,2013-04-02 08:11:00,
2013-04-02 04:41:00,38.5,33.5,29.79,ESE,112,1.1,-999.0,82,-99.99,,,0.00,Acu-Link.com,2013-04-02 08:41:00,
2013-04-02 05:11:00,36.7,32.9,29.80,SSE,157,0.0,-999.0,86,-99.99,,,0.00,Acu-Link.com,2013-04-02 09:11:00,
2013-04-02 05:26:00,35.1,34.6,29.82,SE,135,0.0,-999.0,98,-99.99,,,0.00,Acu-Link.com,2013-04-02 09:26:00,
2013-04-02 05:42:00,34.7,34.2,29.82,ESE,112,1.7,-999.0,98,-99.99,,,0.00,Acu-Link.com,2013-04-02 09:42:00,
2013-04-02 05:57:00,34.0,33.5,29.82,East,90,0.0,-999.0,98,-99.99,,,0.00,Acu-Link.com,2013-04-02 09:57:00,
2013-04-02 06:12:00,33.6,33.1,29.83,South,180,0.0,-999.0,98,-99.99,,,0.00,Acu-Link.com,2013-04-02 10:12:00,
2013-04-02 06:27:00,32.9,32.4,29.85,SSW,202,0.0,-999.0,98,-99.99,,,0.00,Acu-Link.com,2013-04-02 10:27:00,
2013-04-02 06:42:00,32.4,31.9,29.85,SSW,202,0.0,-999.0,98,-99.99,,,0.00,Acu-Link.com,2013-04-02 10:42:00,
2013-04-02 06:58:00,32.2,31.7,29.86,South,180,1.7,-999.0,98,-99.99,,,0.00,Acu-Link.com,2013-04-02 10:58:00,
2013-04-02 07:13:00,32.0,31.5,29.88,South,180,0.0,-999.0,98,-99.99,,,0.00,Acu-Link.com,2013-04-02 11:13:00,
2013-04-02 07:28:00,32.4,31.9,29.89,South,180,0.0,-999.0,98,-99.99,,,0.00,Acu-Link.com,2013-04-02 11:28:00,
2013-04-02 07:44:00,33.3,32.8,29.90,South,180,0.0,-999.0,98,-99.99,,,0.00,Acu-Link.com,2013-04-02 11:44:00,
2013-04-02 07:59:00,34.5,34.0,29.91,South,180,1.7,-999.0,98,-99.99,,,0.00,Acu-Link.com,2013-04-02 11:59:00,
2013-04-02 08:14:00,34.7,34.2,29.92,SW,225,1.1,-999.0,98,-99.99,,,0.00,Acu-Link.com,2013-04-02 12:14:00,
2013-04-02 08:30:00,35.8,35.3,29.91,SW,225,2.7,-999.0,98,-99.99,,,0.00,Acu-Link.com,2013-04-02 12:30:00,
2013-04-02 08:45:00,37.6,37.1,29.90,WSW,247,1.1,-999.0,98,-99.99,,,0.00,Acu-Link.com,2013-04-02 12:45:00,
2013-04-02 09:00:00,39.9,39.4,29.91,NNW,337,1.1,-999.0,98,-99.99,,,0.00,Acu-Link.com,2013-04-02 13:00:00,
2013-04-02 09:15:00,42.1,33.4,29.91,East,90,1.1,-999.0,71,-99.99,,,0.00,Acu-Link.com,2013-04-02 13:15:00,
2013-04-02 09:30:00,43.9,31.7,29.92,WSW,247,3.2,-999.0,62,-99.99,,,0.00,Acu-Link.com,2013-04-02 13:30:00,
2013-04-02 09:45:00,45.7,32.2,29.92,SSW,202,2.7,-999.0,59,-99.99,,,0.00,Acu-Link.com,2013-04-02 13:45:00,
2013-04-02 10:47:00,50.2,35.1,29.92,SW,225,4.2,-999.0,56,-99.99,,,0.00,Acu-Link.com,2013-04-02 14:47:00,
2013-04-02 11:02:00,50.4,35.3,29.92,WSW,247,6.3,-999.0,56,-99.99,,,0.00,Acu-Link.com,2013-04-02 15:02:00,
2013-04-02 11:17:00,51.8,35.2,29.92,SSW,202,3.7,-999.0,53,-99.99,,,0.00,Acu-Link.com,2013-04-02 15:17:00,
2013-04-02 11:32:00,53.4,36.7,29.91,SSE,157,3.7,-999.0,53,-99.99,,,0.00,Acu-Link.com,2013-04-02 15:32:00,
2013-04-02 11:47:00,52.9,36.7,29.92,WNW,292,7.8,-999.0,54,-99.99,,,0.00,Acu-Link.com,2013-04-02 15:47:00,
2013-04-02 12:02:00,54.7,37.9,29.92,SW,225,4.7,-999.0,53,-99.99,,,0.00,Acu-Link.com,2013-04-02 16:02:00,
2013-04-02 12:18:00,50.5,34.5,29.91,South,180,3.7,-999.0,54,-99.99,,,0.00,Acu-Link.com,2013-04-02 16:18:00,
2013-04-02 12:33:00,53.2,37.9,29.90,NW,315,3.2,-999.0,56,-99.99,,,0.00,Acu-Link.com,2013-04-02 16:33:00,
2013-04-02 12:48:00,54.3,38.5,29.89,SW,225,2.7,-999.0,55,-99.99,,,0.00,Acu-Link.com,2013-04-02 16:48:00,
2013-04-02 13:03:00,53.6,37.8,29.88,SW,225,4.7,-999.0,55,-99.99,,,0.00,Acu-Link.com,2013-04-02 17:03:00,
2013-04-02 13:19:00,54.0,37.7,29.88,SW,225,4.7,-999.0,54,-99.99,,,0.00,Acu-Link.com,2013-04-02 17:19:00,
2013-04-02 13:34:00,54.7,37.4,29.88,SW,225,7.3,-999.0,52,-99.99,,,0.00,Acu-Link.com,2013-04-02 17:34:00,
2013-04-02 13:49:00,55.9,39.5,29.87,SSW,202,4.7,-999.0,54,-99.99,,,0.00,Acu-Link.com,2013-04-02 17:49:00,
2013-04-02 14:19:00,56.5,40.5,29.85,NE,45,2.2,-999.0,55,-99.99,,,0.00,Acu-Link.com,2013-04-02 18:19:00,
2013-04-02 14:34:00,55.8,39.4,29.85,South,180,6.8,-999.0,54,-99.99,,,0.00,Acu-Link.com,2013-04-02 18:34:00,
2013-04-02 14:50:00,56.7,39.8,29.84,South,180,3.2,-999.0,53,-99.99,,,0.00,Acu-Link.com,2013-04-02 18:50:00,
2013-04-02 15:05:00,56.8,40.8,29.83,SSE,157,4.2,-999.0,55,-99.99,,,0.00,Acu-Link.com,2013-04-02 19:05:00,
2013-04-02 15:20:00,57.6,42.5,29.82,West,270,6.3,-999.0,57,-99.99,,,0.00,Acu-Link.com,2013-04-02 19:20:00,
2013-04-02 15:35:00,56.1,40.6,29.83,SSW,202,7.8,-999.0,56,-99.99,,,0.00,Acu-Link.com,2013-04-02 19:35:00,
2013-04-02 15:50:00,57.7,43.0,29.81,SW,225,5.3,-999.0,58,-99.99,,,0.00,Acu-Link.com,2013-04-02 19:50:00,
2013-04-02 16:21:00,56.1,41.1,29.81,SE,135,5.8,-999.0,57,-99.99,,,0.00,Acu-Link.com,2013-04-02 20:21:00,
2013-04-02 16:36:00,56.8,42.2,29.81,WNW,292,5.8,-999.0,58,-99.99,,,0.00,Acu-Link.com,2013-04-02 20:36:00,
2013-04-02 16:52:00,57.0,42.4,29.81,WSW,247,6.3,-999.0,58,-99.99,,,0.00,Acu-Link.com,2013-04-02 20:52:00,
2013-04-02 17:07:00,56.3,40.8,29.80,SW,225,3.7,-999.0,56,-99.99,,,0.00,Acu-Link.com,2013-04-02 21:07:00,
2013-04-02 17:22:00,56.1,42.0,29.80,SW,225,5.3,-999.0,59,-99.99,,,0.00,Acu-Link.com,2013-04-02 21:22:00,
2013-04-02 17:37:00,55.8,41.7,29.80,SSW,202,4.7,-999.0,59,-99.99,,,0.00,Acu-Link.com,2013-04-02 21:37:00,
2013-04-02 18:08:00,57.6,44.3,29.80,West,270,2.2,-999.0,61,-99.99,,,0.00,Acu-Link.com,2013-04-02 22:08:00,
2013-04-02 18:23:00,55.6,42.4,29.81,SSW,202,4.7,-999.0,61,-99.99,,,0.00,Acu-Link.com,2013-04-02 22:23:00,
2013-04-02 18:38:00,55.4,43.0,29.81,West,270,2.2,-999.0,63,-99.99,,,0.00,Acu-Link.com,2013-04-02 22:38:00,
2013-04-02 18:53:00,54.1,41.8,29.81,SW,225,2.7,-999.0,63,-99.99,,,0.00,Acu-Link.com,2013-04-02 22:53:00,
2013-04-02 19:24:00,52.5,39.9,29.81,West,270,2.7,-999.0,62,-99.99,,,0.00,Acu-Link.com,2013-04-02 23:24:00,
2013-04-02 19:39:00,52.0,40.2,29.81,NW,315,2.2,-999.0,64,-99.99,,,0.00,Acu-Link.com,2013-04-02 23:39:00,
2013-04-02 19:55:00,51.4,39.2,29.82,SSW,202,2.2,-999.0,63,-99.99,,,0.00,Acu-Link.com,2013-04-02 23:55:00,
2013-04-02 20:10:00,51.1,39.4,29.81,West,270,2.7,-999.0,64,-99.99,,,0.00,Acu-Link.com,2013-04-03 00:10:00,
2013-04-02 20:25:00,49.8,38.1,29.82,SE,135,3.7,-999.0,64,-99.99,,,0.00,Acu-Link.com,2013-04-03 00:25:00,
2013-04-02 20:56:00,50.7,38.6,29.84,West,270,1.1,-999.0,63,-99.99,,,0.00,Acu-Link.com,2013-04-03 00:56:00,
2013-04-02 21:26:00,50.2,36.9,29.86,South,180,2.7,-999.0,60,-99.99,,,0.00,Acu-Link.com,2013-04-03 01:26:00,
2013-04-02 21:41:00,50.2,37.7,29.86,SSW,202,2.7,-999.0,62,-99.99,,,0.00,Acu-Link.com,2013-04-03 01:41:00,
2013-04-02 21:57:00,49.6,36.7,29.87,SSW,202,2.2,-999.0,61,-99.99,,,0.00,Acu-Link.com,2013-04-03 01:57:00,
2013-04-02 22:27:00,48.6,35.4,29.88,South,180,2.7,-999.0,60,-99.99,,,0.00,Acu-Link.com,2013-04-03 02:27:00,
2013-04-02 22:43:00,48.2,34.6,29.88,WSW,247,2.7,-999.0,59,-99.99,,,0.00,Acu-Link.com,2013-04-03 02:43:00,
2013-04-02 22:58:00,47.8,35.0,29.88,WNW,292,2.7,-999.0,61,-99.99,,,0.00,Acu-Link.com,2013-04-03 02:58:00,
2013-04-02 23:29:00,47.1,33.9,29.88,West,270,2.7,-999.0,60,-99.99,,,0.00,Acu-Link.com,2013-04-03 03:29:00,
2013-04-02 23:44:00,46.6,33.9,29.88,WSW,247,1.7,-999.0,61,-99.99,,,0.00,Acu-Link.com,2013-04-03 03:44:00,
2013-04-02 23:59:00,45.5,34.8,29.89,South,180,1.7,-999.0,66,-99.99,,,0.00,Acu-Link.com,2013-04-03 03:59:00,